Location: Pandora
(40.9481°N, 83.9611°W)
Time: 18:21:46
(UTC-04:00)

ISS - Pass Details

Date: 28 September 2021
Orbit: 417 x 423 km, 51.6° (Epoch: 19 October)

Event Time Altitude Azimuth Distance (km) Brightness Sun altitude
Rises 21:12:32 0° 311° (NW) 2,365 1.2 -21.4°
Reaches altitude 10° 21:14:58 10° 327° (NNW) 1,500 -0.3 -21.9°
Enters shadow 21:17:00 20° 3° (N) 1,027 -1.7 -22.2°
